QPF
0.00 0.01 0.01 0.00 0.00 0.00 0.00 0.00 0.01 0.00 0.00 0.00 0.00 0.00 0.00 0.00 0.00 0.00 0.00 0.00 0.00 0.00 0.00 0.00 0.00 0.00 0.00 0.00 0.00 0.00 0.00 0.00 0.00 0.00 0.00 0.00 0.00 0.00 0.00 0.00 0.00 0.00 0.00 0.00
0.00 0.00 0.00 0.00 0.00 0.00 0.00 0.00 0.00 0.00 0.00 0.00 0.00 0.00 0.00 0.00 0.00 0.00 0.00 0.00 0.00 0.00 0.00 0.00 0.00 0.00 0.00 0.00 0.00 0.00 0.00 0.00 0.00 0.00 0.00 0.00 0.00 0.00 0.00 0.00 0.00 0.00 0.00 0.00
0.01 0.00 0.00 0.00 0.00 0.00 0.00 0.00 0.00 0.00 0.00 0.00 0.00 0.00 0.00 0.00 0.00 0.00 0.00 0.00 0.00 0.00 0.00 0.00 0.00 0.00 0.00 0.00 0.00 0.00 0.00 0.00 0.00 0.00 0.00 0.00 0.00 0.00 0.00 0.00 0.00 0.00 0.00 0.00
0.01 0.01 0.01 0.00 0.00 0.00 0.00 0.00 0.00 0.00 0.00 0.00 0.00 0.00 0.00 0.00 0.00 0.00 0.00 0.00 0.00 0.00 0.00 0.00 0.00 0.00 0.00 0.00 0.00 0.00 0.00 0.00 0.00 0.00 0.00 0.00 0.00 0.00 0.00 0.00 0.00 0.00 0.00 0.00
0.00 0.00 0.00 0.00 0.00 0.00 0.00 0.00 0.00 0.00 0.00 0.00 0.00 0.00 0.00 0.00 0.00 0.00 0.00 0.00 0.00 0.00 0.00 0.00 0.00 0.00 0.00 0.00 0.00 0.00 0.00 0.00 0.00 0.00 0.00 0.00 0.00 0.00 0.00 0.00 0.00 0.00 0.00 0.00
0.01 0.02 0.00 0.00 0.00 0.00 0.00 0.00 0.00 0.00 0.00 0.00 0.01 0.00 0.00 0.00 0.00 0.00 0.00 0.00 0.00 0.00 0.00 0.00 0.00 0.00 0.00 0.00 0.00 0.00 0.00 0.00 0.00 0.00 0.00 0.00 0.00 0.00 0.00 0.00 0.00 0.00 0.00 0.00
0.01 0.01 0.00 0.00 0.00 0.00 0.00 0.00 0.00 0.01 0.02 0.02 0.01 0.00 0.00 0.00 0.00 0.00 0.00 0.00 0.00 0.00 0.00 0.00 0.00 0.00 0.00 0.00 0.00 0.00 0.00 0.00 0.00 0.00 0.00 0.00 0.00 0.00 0.00 0.00 0.00 0.00 0.00 0.00
0.00 0.01 0.00 0.00 0.00 0.00 0.00 0.00 0.00 0.00 0.00 0.00 0.00 0.00 0.00 0.00 0.00 0.00 0.00 0.00 0.00 0.00 0.00 0.00 0.00 0.00 0.00 0.00 0.00 0.00 0.00 0.00 0.00 0.00 0.00 0.00 0.00 0.00 0.00 0.00 0.00 0.00 0.00 0.00
0.00 0.00 0.00 0.00 0.00 0.00 0.00 0.00 0.00 0.00 0.00 0.00 0.00 0.00 0.00 0.00 0.00 0.00 0.00 0.00 0.00 0.00 0.00 0.00 0.00 0.00 0.00 0.00 0.00 0.00 0.00 0.00 0.00 0.00 0.00 0.00 0.00 0.00 0.00 0.00 0.00 0.00 0.00 0.00
0.00 0.00 0.00 0.00 0.00 0.00 0.00 0.00 0.00 0.00 0.00 0.00 0.00 0.00 0.00 0.00 0.00 0.00 0.00 0.00 0.00 0.00 0.00 0.00 0.00 0.00 0.00 0.00 0.00 0.00 0.00 0.00 0.00 0.00 0.00 0.00 0.00 0.00 0.00 0.00 0.00 0.00 0.00 0.00
0.00 0.00 0.00 0.00 0.00 0.00 0.00 0.00 0.00 0.00 0.00 0.00 0.00 0.00 0.00 0.00 0.00 0.00 0.00 0.00 0.00 0.00 0.00 0.00 0.00 0.00 0.00 0.00 0.00 0.00 0.00 0.00 0.00 0.00 0.00 0.00 0.00 0.00 0.00 0.00 0.00 0.00 0.00 0.00
0.00 0.00 0.00 0.00 0.00 0.00 0.00 0.00 0.00 0.00 0.00 0.00 0.00 0.00 0.00 0.00 0.00 0.00 0.00 0.00 0.00 0.00 0.00 0.00 0.00 0.00 0.00 0.00 0.00 0.00 0.00 0.00 0.00 0.00 0.00 0.00 0.00 0.00 0.00 0.00 0.00 0.00 0.00 0.00
0.00 0.00 0.00 0.00 0.00 0.00 0.00 0.00 0.00 0.00 0.00 0.00 0.00 0.00 0.00 0.00 0.00 0.00 0.00 0.00 0.00 0.00 0.00 0.00 0.00 0.00 0.00 0.00 0.00 0.00 0.00 0.00 0.00 0.00 0.00 0.00 0.00 0.00 0.00 0.00 0.00 0.00 0.00 0.00
0.00 0.00 0.00 0.00 0.00 0.00 0.00 0.00 0.00 0.00 0.00 0.00 0.00 0.00 0.00 0.00 0.00 0.00 0.00 0.00 0.00 0.00 0.00 0.00 0.00 0.00 0.00 0.00 0.00 0.00 0.00 0.00 0.00 0.00 0.00 0.00 0.00 0.00 0.00 0.00 0.00 0.00 0.00 0.00
0.00 0.00 0.00 0.00 0.00 0.00 0.00 0.00 0.00 0.00 0.00 0.00 0.00 0.00 0.00 0.00 0.01 0.00 0.00 0.00 0.00 0.00 0.00 0.00 0.00 0.00 0.00 0.00 0.00 0.00 0.00 0.00 0.00 0.00 0.00 0.00 0.00 0.00 0.00 0.00 0.00 0.00 0.00 0.00
0.01 0.01 0.00 0.00 0.00 0.00 0.00 0.00 0.00 0.00 0.00 0.00 0.00 0.00 0.00 0.00 0.00 0.00 0.00 0.00 0.00 0.00 0.00 0.00 0.00 0.00 0.00 0.00 0.00 0.00 0.00 0.00 0.00 0.00 0.00 0.00 0.00 0.00 0.00 0.00 0.00 0.00 0.00 0.00
0.01 0.00 0.00 0.00 0.00 0.00 0.00 0.00 0.00 0.00 0.00 0.00 0.00 0.00 0.00 0.00 0.00 0.00 0.00 0.00 0.00 0.00 0.00 0.00 0.00 0.00 0.00 0.00 0.00 0.00 0.00 0.00 0.00 0.00 0.00 0.00 0.00 0.00 0.00 0.00 0.00 0.00 0.00 0.00
0.00 0.00 0.00 0.00 0.00 0.00 0.00 0.00 0.00 0.00 0.00 0.00 0.00 0.00 0.00 0.00 0.00 0.00 0.00 0.00 0.00 0.00 0.00 0.00 0.00 0.00 0.00 0.00 0.00 0.00 0.00 0.00 0.00 0.00 0.00 0.00 0.00 0.00 0.00 0.00 0.00 0.00 0.00 0.00
0.00 0.00 0.00 0.00 0.00 0.00 0.00 0.00 0.00 0.00 0.00 0.00 0.00 0.00 0.00 0.00 0.00 0.00 0.00 0.00 0.00 0.00 0.00 0.00 0.00 0.00 0.00 0.00 0.00 0.00 0.00 0.00 0.00 0.00 0.00 0.00 0.00 0.00 0.00 0.00 0.00 0.00 0.00 0.00
0.00 0.00 0.00 0.00 0.00 0.00 0.00 0.00 0.00 0.00 0.00 0.00 0.00 0.00 0.00 0.00 0.00 0.00 0.00 0.00 0.00 0.00 0.00 0.00 0.00 0.00 0.00 0.00 0.00 0.00 0.00 0.00 0.00 0.00 0.00 0.00 0.00 0.00 0.00 0.00 0.00 0.00 0.00 0.00
0.00 0.00 0.00 0.00 0.00 0.00 0.00 0.00 0.00 0.00 0.00 0.00 0.00 0.00 0.00 0.00 0.00 0.00 0.00 0.00 0.00 0.00 0.00 0.00 0.00 0.00 0.00 0.00 0.00 0.00 0.00 0.00 0.00 0.00 0.00 0.00 0.00 0.00 0.00 0.00 0.00 0.00 0.01 0.01
0.00 0.00 0.00 0.00 0.00 0.00 0.00 0.00 0.00 0.00 0.00 0.00 0.00 0.00 0.00 0.00 0.00 0.00 0.00 0.00 0.00 0.00 0.00 0.00 0.00 0.00 0.00 0.00 0.00 0.00 0.00 0.00 0.00 0.00 0.00 0.00 0.00 0.00 0.00 0.00 0.00 0.01 0.01 0.01
0.00 0.00 0.00 0.00 0.00 0.00 0.00 0.00 0.00 0.00 0.00 0.00 0.00 0.00 0.00 0.00 0.00 0.00 0.00 0.00 0.00 0.00 0.00 0.00 0.00 0.00 0.00 0.00 0.00 0.00 0.00 0.00 0.00 0.00 0.00 0.00 0.00 0.00 0.00 0.00 0.01 0.01 0.00 0.00
0.00 0.00 0.00 0.00 0.00 0.00 0.00 0.00 0.00 0.00 0.00 0.00 0.00 0.00 0.00 0.00 0.00 0.00 0.00 0.00 0.00 0.00 0.00 0.00 0.00 0.00 0.00 0.00 0.00 0.00 0.00 0.00 0.00 0.00 0.00 0.00 0.00 0.00 0.00 0.00 0.00 0.00 0.00 0.00
0.00 0.00 0.00 0.00 0.00 0.00 0.00 0.00 0.00 0.00 0.00 0.00 0.00 0.00 0.00 0.00 0.00 0.00 0.00 0.00 0.00 0.00 0.00 0.00 0.00 0.00 0.00 0.00 0.00 0.00 0.00 0.00 0.00 0.00 0.00 0.00 0.00 0.00 0.00 0.00 0.00 0.00 0.00 0.00
0.00 0.00 0.00 0.00 0.00 0.00 0.00 0.00 0.00 0.00 0.00 0.00 0.00 0.00 0.00 0.00 0.00 0.00 0.00 0.00 0.00 0.00 0.00 0.00 0.00 0.00 0.00 0.00 0.00 0.00 0.00 0.00 0.00 0.00 0.00 0.00 0.00 0.00 0.00 0.00 0.00 0.00 0.00 0.00
0.00 0.00 0.00 0.00 0.00 0.00 0.00 0.00 0.00 0.00 0.00 0.00 0.00 0.00 0.00 0.00 0.00 0.00 0.00 0.00 0.00 0.00 0.00 0.00 0.00 0.00 0.00 0.00 0.00 0.00 0.00 0.00 0.00 0.00 0.00 0.00 0.00 0.00 0.00 0.00 0.00 0.00 0.00 0.00
MSLP
1012.31 1011.84 1011.73 1011.61 1011.33 1011.47 1011.66 1011.41 1010.84 1008.61 1008.14 1005.95 1005.88 1005.27 1004.59 1003.87 1003.56 1003.26 1002.90 1002.65 1002.53 1002.48 1002.49 1002.67 1003.34 1003.70 1003.90 1004.41 1005.11 1005.74 1006.14 1006.20 1006.91 1009.05 1010.41 1011.56 1012.95 1014.19 1015.10 1016.74 1018.08 1019.16 1019.98 1020.97
1013.20 1012.74 1012.21 1011.43 1011.05 1010.65 1010.44 1009.92 1009.47 1008.43 1007.30 1005.83 1005.19 1004.57 1004.21 1003.60 1003.24 1002.81 1002.65 1002.55 1002.21 1001.86 1001.67 1001.75 1002.02 1002.77 1003.07 1003.69 1004.25 1004.85 1005.79 1006.66 1006.90 1007.59 1009.59 1011.38 1012.43 1013.71 1015.00 1016.41 1017.53 1018.91 1019.91 1020.64
1012.91 1012.61 1012.14 1011.33 1010.57 1009.82 1009.08 1008.49 1008.21 1007.55 1006.44 1004.97 1004.16 1004.12 1003.66 1003.20 1002.78 1002.50 1002.48 1002.31 1002.01 1001.83 1001.62 1001.28 1001.12 1001.56 1002.10 1002.67 1003.45 1004.31 1005.11 1006.15 1007.42 1008.52 1008.85 1009.33 1010.97 1012.88 1014.49 1016.04 1017.43 1018.68 1019.59 1020.64
1013.49 1013.12 1011.50 1010.17 1009.51 1008.79 1008.22 1007.79 1007.40 1006.64 1005.62 1004.96 1004.05 1003.43 1003.27 1002.91 1002.67 1002.45 1002.15 1002.47 1002.45 1001.99 1001.54 1001.43 1001.13 1000.63 1001.29 1001.81 1002.69 1003.79 1004.38 1005.03 1006.86 1008.81 1009.71 1010.70 1011.09 1011.94 1013.91 1015.79 1017.06 1018.19 1018.96 1020.37
1013.52 1012.40 1010.77 1009.74 1008.64 1008.37 1007.69 1006.81 1006.73 1006.15 1005.54 1004.60 1004.06 1003.48 1002.69 1002.82 1002.81 1002.73 1002.39 1002.30 1002.32 1002.12 1001.92 1001.42 1001.04 1000.54 1000.74 1001.47 1002.33 1003.54 1004.07 1005.04 1006.36 1007.74 1009.33 1011.06 1011.99 1012.77 1013.78 1015.30 1016.95 1018.08 1018.94 1020.18
1012.89 1011.74 1009.86 1008.22 1007.78 1007.71 1007.39 1006.60 1006.18 1005.78 1005.22 1004.71 1004.29 1003.59 1002.35 1002.51 1002.77 1002.26 1002.13 1002.30 1002.18 1002.15 1001.98 1001.51 1001.09 1000.80 1000.88 1001.73 1002.45 1003.23 1004.53 1005.70 1007.12 1008.64 1009.58 1010.71 1012.21 1013.07 1014.09 1015.27 1016.27 1017.96 1019.11 1020.28
1011.94 1010.89 1009.40 1007.87 1007.83 1007.82 1007.45 1005.78 1005.42 1005.76 1005.49 1005.40 1005.10 1004.66 1003.65 1003.41 1002.91 1002.38 1002.13 1002.29 1002.52 1002.34 1002.07 1001.77 1001.68 1001.63 1002.00 1002.33 1003.23 1004.24 1005.43 1006.81 1008.25 1009.18 1010.08 1010.87 1012.15 1013.34 1014.36 1015.23 1016.76 1017.93 1019.21 1020.53
1011.00 1010.19 1008.36 1007.98 1007.19 1007.00 1006.22 1005.59 1005.60 1005.80 1005.79 1005.48 1004.78 1004.23 1003.47 1002.94 1002.54 1002.15 1002.01 1002.14 1002.34 1002.41 1002.37 1002.37 1002.27 1002.08 1002.91 1004.15 1005.08 1005.96 1006.87 1007.90 1009.20 1009.58 1010.57 1011.47 1012.49 1013.65 1014.64 1015.78 1016.91 1018.36 1019.15 1020.15
1010.44 1008.69 1007.53 1006.97 1006.62 1006.46 1006.39 1005.88 1005.40 1005.57 1005.19 1004.81 1004.23 1003.53 1003.00 1002.63 1002.15 1001.90 1002.00 1002.15 1002.37 1002.64 1003.03 1003.46 1003.68 1003.35 1004.69 1005.94 1006.14 1006.65 1007.43 1008.46 1009.67 1010.53 1011.27 1011.78 1012.78 1013.98 1015.26 1016.28 1017.21 1018.18 1019.32 1020.15
1009.68 1007.68 1007.44 1006.99 1006.34 1005.97 1005.78 1005.48 1005.04 1004.78 1004.25 1003.92 1003.38 1003.09 1002.65 1002.26 1001.72 1001.66 1001.62 1002.12 1002.54 1002.98 1003.37 1003.85 1004.35 1004.75 1005.50 1006.42 1006.75 1007.19 1008.13 1008.83 1009.95 1010.80 1011.91 1012.70 1013.62 1014.54 1015.53 1016.53 1017.39 1018.18 1018.78 1019.44
1007.83 1006.99 1006.53 1005.96 1005.52 1005.36 1005.01 1004.64 1004.35 1004.00 1003.50 1003.11 1002.89 1002.66 1002.40 1002.01 1001.82 1001.90 1002.03 1002.51 1003.03 1003.23 1003.74 1004.09 1004.93 1005.62 1006.22 1007.10 1007.43 1008.03 1008.85 1009.67 1010.46 1011.62 1012.37 1013.26 1014.08 1014.96 1015.95 1016.75 1017.18 1017.78 1018.32 1018.90
1006.05 1005.68 1005.89 1004.84 1004.55 1004.48 1004.37 1003.99 1003.49 1003.25 1002.77 1002.43 1002.25 1001.92 1001.89 1001.75 1001.73 1002.20 1002.44 1002.94 1003.43 1003.99 1004.67 1005.01 1005.66 1006.31 1006.99 1007.50 1008.03 1008.48 1009.37 1010.13 1011.03 1012.12 1012.85 1013.67 1014.49 1015.62 1016.74 1017.26 1017.80 1018.32 1018.81 1019.16
1004.81 1004.59 1004.29 1003.78 1003.50 1003.27 1003.15 1002.64 1002.44 1002.19 1001.90 1001.62 1001.31 1001.41 1001.49 1001.56 1001.75 1002.42 1002.84 1003.33 1003.94 1004.70 1005.38 1005.95 1006.43 1006.98 1007.50 1008.04 1008.44 1009.07 1009.68 1010.63 1011.49 1012.32 1013.25 1013.96 1014.77 1015.74 1017.14 1018.63 1018.83 1018.69 1019.17 1019.63
1004.47 1003.84 1003.06 1002.86 1002.10 1001.94 1001.72 1001.59 1001.47 1001.30 1001.13 1001.03 1000.94 1000.88 1000.99 1001.17 1002.58 1003.12 1003.73 1004.17 1004.27 1005.28 1006.38 1006.70 1007.02 1007.66 1008.37 1008.69 1009.20 1009.70 1010.36 1011.15 1011.72 1012.58 1013.62 1014.47 1015.05 1015.87 1016.79 1017.51 1017.92 1019.01 1019.83 1019.98
1003.86 1003.60 1002.78 1002.26 1001.86 1001.21 1000.94 1000.67 1000.38 1000.37 1000.39 1000.32 1000.32 1000.61 1001.06 1001.59 1002.95 1003.80 1004.65 1005.37 1005.46 1005.78 1006.64 1007.32 1007.68 1008.22 1008.72 1009.08 1009.62 1010.27 1010.85 1011.54 1012.22 1013.02 1013.84 1014.71 1015.49 1016.10 1016.47 1017.10 1017.76 1018.51 1019.35 1020.15
1003.93 1003.43 1002.70 1001.96 1001.18 1000.57 1000.28 999.99 999.79 999.81 999.98 1000.11 1000.11 1000.66 1001.33 1002.21 1003.48 1004.46 1005.09 1005.65 1005.83 1006.18 1006.83 1007.65 1008.20 1008.86 1009.31 1009.71 1010.23 1010.94 1011.50 1012.03 1012.65 1013.47 1014.29 1014.88 1015.54 1015.98 1016.62 1017.17 1017.67 1018.26 1018.86 1019.30
1003.36 1002.54 1002.08 1001.54 1000.92 1000.24 999.74 999.57 999.36 999.56 1000.07 1000.24 1000.10 1000.87 1001.82 1002.80 1004.02 1004.87 1005.46 1006.02 1006.26 1006.73 1007.30 1007.97 1008.69 1009.41 1009.85 1010.35 1010.65 1011.16 1011.71 1012.40 1013.01 1013.64 1014.21 1014.94 1015.58 1016.12 1016.69 1017.23 1017.71 1018.19 1018.63 1019.16
1003.41 1002.65 1002.23 1001.62 1000.96 1000.30 999.67 999.23 999.27 999.65 999.85 999.91 1000.50 1001.80 1002.70 1003.21 1004.06 1005.02 1005.79 1006.40 1006.86 1007.31 1008.00 1008.74 1009.30 1009.88 1010.38 1010.72 1010.76 1011.22 1011.91 1012.61 1013.11 1013.75 1014.46 1015.14 1015.62 1016.21 1016.81 1017.30 1017.70 1018.14 1018.61 1019.65
1003.27 1002.50 1001.60 1000.76 1000.12 999.66 999.47 999.18 999.35 999.34 999.63 1000.66 1001.58 1002.38 1002.96 1003.62 1004.40 1005.25 1006.00 1006.52 1007.03 1007.73 1008.87 1009.31 1009.84 1010.15 1010.58 1010.98 1011.19 1011.59 1012.07 1012.66 1013.29 1014.02 1014.71 1015.41 1015.92 1016.33 1016.80 1017.21 1017.65 1018.09 1018.48 1019.04
1002.88 1002.09 1001.27 1000.26 998.98 998.59 998.81 999.07 999.37 999.78 1000.59 1001.20 1002.00 1002.69 1003.38 1004.16 1004.84 1005.58 1006.21 1006.64 1007.14 1007.67 1008.79 1009.46 1009.80 1010.22 1010.82 1011.42 1011.42 1011.71 1012.31 1012.96 1013.52 1014.24 1014.85 1015.34 1015.82 1016.32 1016.75 1017.23 1017.51 1017.99 1018.41 1018.78
1002.95 1002.23 1001.48 1000.62 999.88 999.31 999.13 999.31 999.74 1000.37 1000.99 1001.61 1002.16 1002.85 1003.58 1004.44 1005.26 1005.85 1006.47 1006.88 1008.06 1008.61 1008.90 1009.57 1009.66 1010.24 1010.73 1011.37 1011.52 1012.04 1012.61 1013.18 1013.76 1014.28 1014.86 1015.24 1015.80 1016.21 1016.70 1017.14 1017.56 1017.94 1018.29 1018.59
1003.20 1002.67 1002.02 1001.34 1000.86 1000.53 1000.40 1000.36 1000.51 1000.97 1001.49 1002.06 1002.68 1003.40 1004.11 1004.88 1005.59 1006.15 1006.65 1006.50 1007.88 1008.68 1009.04 1009.31 1009.77 1010.34 1010.88 1011.60 1011.71 1012.42 1012.88 1013.37 1013.86 1014.31 1014.76 1015.19 1015.69 1016.16 1016.64 1017.11 1017.54 1017.83 1018.18 1018.58
1003.54 1003.10 1002.60 1002.08 1001.68 1001.41 1001.31 1001.29 1001.38 1001.55 1002.00 1002.58 1003.19 1003.70 1004.09 1004.68 1005.20 1005.56 1006.20 1007.12 1007.77 1008.55 1008.77 1009.40 1010.09 1010.95 1011.56 1011.65 1012.23 1012.69 1013.13 1013.58 1013.95 1014.35 1014.77 1015.22 1015.64 1016.11 1016.60 1016.98 1017.34 1017.71 1018.22 1018.64
1003.71 1003.28 1002.90 1002.57 1002.18 1001.90 1001.85 1002.01 1002.07 1002.31 1002.65 1003.17 1003.67 1004.12 1004.37 1004.88 1005.50 1005.80 1006.03 1007.04 1007.78 1008.71 1008.86 1009.87 1010.80 1011.31 1011.54 1011.90 1012.35 1012.80 1013.29 1013.67 1014.00 1014.36 1014.83 1015.42 1015.78 1016.26 1016.63 1017.02 1017.51 1017.93 1018.33 1019.02
1003.92 1003.48 1003.05 1002.77 1002.49 1002.29 1002.33 1002.48 1002.60 1002.86 1003.16 1003.53 1004.17 1004.70 1004.81 1004.89 1005.13 1005.94 1006.63 1007.34 1008.31 1008.58 1009.19 1010.39 1010.98 1011.43 1011.55 1012.02 1012.47 1012.94 1013.26 1013.66 1014.05 1014.46 1014.93 1015.39 1015.86 1016.33 1016.79 1017.21 1017.56 1018.08 1018.62 1019.14
1003.84 1003.42 1003.29 1003.08 1002.90 1002.57 1002.30 1002.46 1002.20 1002.70 1003.07 1003.53 1004.05 1004.46 1004.85 1005.19 1005.53 1006.07 1006.70 1007.50 1008.21 1008.60 1009.29 1010.40 1011.00 1011.39 1011.71 1012.09 1012.55 1012.95 1013.37 1013.85 1014.45 1014.64 1015.00 1015.43 1015.94 1016.42 1016.89 1017.38 1018.06 1018.49 1018.96 1019.44
1003.54 1003.30 1003.00 1002.80 1002.70 1002.69 1002.59 1002.46 1002.43 1002.65 1002.98 1003.20 1003.57 1004.30 1004.68 1005.13 1005.61 1006.06 1006.66 1007.43 1008.06 1008.56 1009.31 1010.01 1010.81 1011.19 1011.59 1012.09 1012.47 1012.96 1013.38 1013.87 1014.30 1014.73 1015.10 1015.64 1016.12 1016.63 1017.21 1017.77 1018.27 1018.80 1019.47 1019.98
Thickness
5465 5466 5462 5465 5475 5480 5465 5468 5452 5494 5484 5520 5513 5512 5521 5529 5529 5534 5538 5543 5546 5547 5551 5553 5551 5549 5550 5549 5544 5541 5540 5542 5539 5519 5509 5499 5487 5477 5469 5454 5442 5432 5422 5409
5417 5435 5438 5443 5458 5466 5465 5470 5463 5474 5473 5513 5512 5512 5510 5512 5518 5522 5522 5527 5532 5540 5545 5545 5547 5543 5544 5541 5538 5535 5529 5523 5522 5516 5499 5487 5478 5468 5457 5445 5435 5420 5409 5399
5406 5426 5419 5404 5439 5453 5460 5467 5458 5446 5475 5505 5507 5499 5498 5507 5506 5507 5509 5512 5519 5521 5525 5532 5538 5536 5535 5533 5531 5525 5519 5513 5505 5495 5491 5488 5475 5460 5447 5432 5418 5405 5397 5385
5387 5398 5379 5430 5445 5454 5449 5448 5449 5457 5473 5476 5486 5491 5494 5500 5495 5493 5495 5494 5499 5506 5511 5513 5519 5526 5523 5522 5519 5511 5507 5504 5491 5476 5471 5464 5459 5452 5436 5418 5403 5394 5386 5372
5371 5384 5406 5420 5443 5434 5431 5436 5444 5448 5452 5465 5469 5472 5492 5478 5477 5476 5483 5487 5486 5489 5492 5499 5504 5509 5509 5507 5503 5494 5492 5488 5478 5467 5454 5441 5436 5429 5420 5406 5391 5379 5370 5359
5376 5368 5377 5426 5438 5430 5421 5402 5444 5435 5442 5447 5451 5451 5481 5467 5463 5468 5470 5471 5474 5474 5476 5482 5487 5490 5491 5489 5487 5482 5471 5462 5452 5440 5433 5425 5415 5410 5402 5390 5380 5364 5355 5345
5371 5367 5385 5418 5418 5413 5382 5421 5431 5425 5427 5428 5424 5430 5451 5448 5449 5454 5458 5457 5455 5457 5462 5465 5467 5468 5466 5469 5463 5454 5444 5431 5421 5418 5412 5406 5396 5387 5378 5372 5359 5351 5342 5331
5368 5357 5358 5404 5407 5391 5406 5414 5414 5409 5409 5409 5419 5425 5433 5439 5440 5444 5447 5445 5445 5446 5449 5449 5449 5453 5449 5437 5425 5419 5415 5409 5400 5401 5392 5388 5378 5369 5361 5353 5346 5335 5329 5324
5362 5373 5391 5396 5391 5391 5388 5392 5401 5396 5402 5406 5412 5421 5426 5429 5434 5437 5438 5438 5436 5434 5431 5426 5426 5431 5415 5407 5408 5406 5404 5396 5386 5381 5376 5374 5366 5356 5347 5341 5335 5328 5319 5314
5348 5374 5371 5370 5376 5375 5375 5376 5385 5390 5399 5406 5411 5415 5420 5424 5430 5432 5434 5429 5427 5424 5421 5416 5412 5410 5401 5398 5399 5395 5390 5387 5377 5370 5362 5357 5351 5345 5338 5332 5325 5320 5316 5311
5356 5368 5368 5369 5372 5369 5368 5372 5378 5386 5396 5403 5407 5410 5413 5417 5420 5421 5419 5416 5415 5417 5413 5410 5402 5395 5391 5385 5386 5384 5378 5372 5366 5357 5353 5347 5342 5337 5329 5323 5320 5315 5311 5304
5366 5372 5363 5372 5373 5370 5365 5370 5379 5384 5392 5401 5405 5409 5410 5413 5415 5410 5408 5405 5404 5402 5397 5395 5389 5384 5380 5377 5375 5373 5366 5360 5354 5346 5342 5338 5332 5323 5313 5310 5304 5299 5295 5291
5377 5380 5378 5379 5380 5379 5377 5383 5386 5390 5396 5401 5407 5407 5408 5409 5409 5401 5400 5397 5394 5388 5383 5378 5375 5372 5370 5366 5365 5361 5358 5350 5345 5340 5333 5327 5321 5314 5301 5287 5285 5288 5281 5276
5375 5378 5381 5384 5387 5390 5390 5391 5392 5394 5397 5400 5403 5406 5407 5408 5387 5384 5382 5380 5381 5373 5365 5364 5363 5359 5355 5355 5351 5349 5345 5340 5337 5331 5323 5317 5312 5305 5296 5289 5287 5276 5267 5264
5371 5371 5375 5379 5382 5389 5392 5394 5396 5396 5398 5401 5403 5402 5400 5398 5377 5372 5365 5361 5362 5360 5354 5351 5350 5348 5347 5346 5343 5339 5336 5331 5327 5321 5314 5306 5299 5293 5291 5286 5279 5271 5262 5253
5358 5360 5364 5369 5377 5383 5385 5389 5391 5394 5395 5395 5398 5393 5390 5381 5369 5360 5355 5353 5353 5351 5346 5340 5339 5336 5335 5335 5332 5328 5324 5320 5316 5309 5300 5295 5291 5287 5281 5276 5271 5265 5258 5251
5353 5360 5362 5362 5366 5372 5380 5383 5386 5385 5379 5380 5389 5384 5376 5367 5357 5351 5348 5345 5344 5341 5338 5333 5329 5326 5325 5324 5323 5320 5316 5311 5306 5301 5296 5290 5284 5278 5272 5267 5261 5255 5249 5240
5354 5356 5350 5350 5353 5357 5367 5376 5377 5372 5370 5377 5373 5359 5356 5355 5354 5345 5340 5335 5332 5331 5327 5321 5320 5318 5316 5315 5317 5314 5308 5302 5300 5294 5288 5281 5277 5270 5264 5258 5252 5245 5238 5223
5348 5345 5349 5352 5356 5359 5361 5367 5368 5372 5368 5356 5352 5351 5351 5350 5345 5338 5332 5329 5327 5323 5314 5313 5311 5311 5310 5308 5307 5305 5301 5297 5292 5286 5279 5271 5266 5262 5256 5250 5243 5234 5226 5216
5346 5349 5349 5357 5371 5373 5370 5369 5368 5365 5355 5353 5350 5349 5346 5342 5336 5331 5328 5327 5326 5323 5311 5309 5309 5307 5303 5300 5301 5299 5293 5288 5284 5277 5271 5266 5260 5253 5247 5239 5232 5223 5215 5205
5347 5349 5350 5358 5364 5370 5372 5370 5366 5360 5356 5354 5352 5347 5342 5335 5328 5326 5324 5325 5312 5310 5310 5307 5308 5304 5301 5296 5295 5291 5286 5281 5275 5270 5263 5259 5251 5245 5237 5229 5221 5212 5203 5195
5345 5345 5347 5356 5361 5362 5362 5363 5361 5357 5353 5350 5345 5338 5332 5327 5322 5323 5319 5328 5314 5308 5307 5307 5305 5301 5297 5290 5289 5282 5278 5273 5268 5262 5256 5250 5243 5236 5228 5219 5210 5202 5193 5183
5340 5341 5344 5346 5352 5353 5352 5352 5352 5352 5348 5342 5336 5333 5335 5332 5329 5328 5326 5318 5313 5307 5308 5304 5298 5291 5285 5285 5279 5274 5269 5264 5259 5254 5248 5241 5234 5226 5217 5209 5201 5192 5181 5169
5336 5338 5339 5340 5344 5347 5346 5342 5343 5341 5339 5336 5333 5331 5331 5328 5325 5325 5325 5314 5310 5303 5303 5295 5287 5282 5280 5277 5272 5266 5261 5256 5251 5246 5239 5231 5224 5215 5207 5199 5189 5178 5168 5153
5332 5334 5337 5338 5342 5344 5341 5337 5335 5333 5333 5332 5326 5323 5326 5328 5327 5320 5314 5309 5300 5300 5295 5285 5280 5276 5274 5269 5264 5259 5254 5249 5243 5236 5229 5222 5214 5205 5196 5187 5178 5167 5154 5141
5331 5334 5332 5331 5333 5338 5343 5340 5345 5339 5336 5331 5326 5324 5322 5320 5318 5313 5308 5302 5297 5295 5289 5279 5274 5270 5267 5262 5256 5251 5246 5239 5231 5226 5220 5212 5203 5195 5186 5176 5163 5152 5140 5127
5332 5330 5333 5332 5331 5331 5332 5335 5336 5334 5331 5329 5327 5320 5318 5314 5311 5308 5303 5297 5293 5289 5282 5277 5269 5265 5260 5254 5249 5243 5237 5230 5224 5216 5210 5201 5193 5184 5173 5162 5151 5139 5126 5113